This is the latest recevied weather packets stored in our database for station/object PU2XNA. If no packets are shown the sender has not sent any weather packets the latest 10 day(s).
| Time | Temp. | Humidity | Pressure | Rain* | Wind** | Luminosity | Snow |
|---|---|---|---|---|---|---|---|
| 1787451303 | 18.33° C | 55% | 1015.6 hPa | - | - | - | - |
| 1787450402 | 18.89° C | 55% | 1015.7 hPa | - | - | - | - |
| 1787449503 | 19.44° C | 52% | 1015.8 hPa | - | - | - | - |
| 1787448603 | 19.44° C | 51% | 1015.9 hPa | - | - | - | - |
| 1787447703 | 19.44° C | 50% | 1015.8 hPa | - | - | - | - |
| 1787446803 | 20° C | 49% | 1015.9 hPa | - | - | - | - |
| 1787445902 | 20° C | 49% | 1015.9 hPa | - | - | - | - |
| 1787445003 | 20.56° C | 49% | 1015.7 hPa | - | - | - | - |
| 1787444103 | 20.56° C | 48% | 1015.6 hPa | - | - | - | - |
| 1787443203 | 21.11° C | 48% | 1015.6 hPa | - | - | - | - |
| 1787442303 | 21.11° C | 47% | 1015.5 hPa | - | - | - | - |
| 1787441403 | 21.67° C | 47% | 1015.6 hPa | - | - | - | - |
| 1787440502 | 21.67° C | 46% | 1015.6 hPa | - | - | - | - |
| 1787439603 | 21.67° C | 47% | 1015.6 hPa | - | - | - | - |
| 1787438703 | 22.22° C | 46% | 1015.3 hPa | - | - | - | - |
| 1787437804 | 22.78° C | 45% | 1015.1 hPa | - | - | - | - |
| 1787436903 | 22.78° C | 44% | 1015 hPa | - | - | - | - |
| 1787436003 | 23.33° C | 43% | 1014.8 hPa | - | - | - | - |
| 1787435102 | 23.33° C | 42% | 1014.6 hPa | - | - | - | - |
| 1787434202 | 24.44° C | 40% | 1014.4 hPa | - | - | - | - |
| 1787433303 | 24.44° C | 38% | 1014.4 hPa | - | - | - | - |
| 1787432403 | 25.56° C | 36% | 1014.4 hPa | - | - | - | - |
| 1787431503 | 26.11° C | 35% | 1014.3 hPa | - | - | - | - |
| 1787430603 | 26.67° C | 34% | 1014.2 hPa | - | - | - | - |
| 1787429703 | 26.67° C | 33% | 1014.2 hPa | - | - | - | - |
* Rain since midnight (hover to see other rain measurements)
** Current wind speed in m/s (hover to see current wind gust speed)